| time (UTC) | temp F | wind direction | speed knots | gust knots | rain 1hr in | rain 24hr in | rain mn in | humidity % | barometer mb |
| 20260906031502 | 62 | 61 | 0.0 | 0.0 | 0.00 | 0.00 | 0.00 | 38 | 932.4 |
| 20260906030957 | 63 | 91 | 0.0 | 0.0 | 0.00 | 0.00 | 0.00 | 36 | 932.3 |
| 20260906030451 | 63 | 67 | 0.0 | 0.9 | 0.00 | 0.00 | 0.00 | 36 | 932.5 |
| 20260906025946 | 64 | 66 | 0.0 | 0.0 | 0.00 | 0.00 | 0.00 | 36 | 932.0 |
| 20260906025446 | 64 | 52 | 0.0 | 0.0 | 0.00 | 0.00 | 0.00 | 37 | 932.1 |
| 20260906024944 | 65 | 51 | 0.0 | 0.0 | 0.00 | 0.00 | 0.00 | 40 | 931.7 |
| 20260906024444 | 65 | 61 | 0.0 | 0.0 | 0.00 | 0.00 | 0.00 | 37 | 931.9 |
| 20260906023939 | 66 | 62 | 0.0 | 0.0 | 0.00 | 0.00 | 0.00 | 33 | 931.6 |
| 20260906023436 | 66 | 19 | 0.0 | 0.0 | 0.00 | 0.00 | 0.00 | 33 | 931.8 |
| 20260906022935 | 66 | 18 | 0.0 | 0.0 | 0.00 | 0.00 | 0.00 | 34 | 932.8 |
| 20260906022431 | 67 | 19 | 0.0 | 0.0 | 0.00 | 0.00 | 0.00 | 35 | 933.2 |
| 20260906021926 | 68 | 18 | 0.0 | 0.0 | 0.00 | 0.00 | 0.00 | 29 | 933.3 |
| 20260906021426 | 69 | 18 | 0.0 | 0.0 | 0.00 | 0.00 | 0.00 | 33 | 933.3 |
| 20260906020920 | 69 | 18 | 0.0 | 0.0 | 0.00 | 0.00 | 0.00 | 31 | 933.1 |
| 20260906020415 | 69 | 18 | 0.0 | 0.0 | 0.00 | 0.00 | 0.00 | 32 | 933.3 |
| 20260906015909 | 70 | 18 | 0.0 | 0.0 | 0.00 | 0.00 | 0.00 | 29 | 933.2 |
| 20260906015409 | 71 | 18 | 0.0 | 0.0 | 0.00 | 0.00 | 0.00 | 27 | 933.3 |
| 20260906014903 | 72 | 18 | 0.0 | 0.0 | 0.00 | 0.00 | 0.00 | 27 | 933.2 |
| 20260906014402 | 73 | 18 | 0.0 | 0.0 | 0.00 | 0.00 | 0.00 | 25 | 933.2 |
| 20260906013859 | 74 | 12 | 0.0 | 0.0 | 0.00 | 0.00 | 0.00 | 24 | 933.2 |
| 20260906013354 | 75 | 12 | 0.0 | 0.0 | 0.00 | 0.00 | 0.00 | 23 | 933.4 |
| 20260906012849 | 76 | 0 | 0.0 | 0.0 | 0.00 | 0.00 | 0.00 | 22 | 933.5 |
| 20260906012344 | 77 | 9 | 0.0 | 0.0 | 0.00 | 0.00 | 0.00 | 21 | 933.4 |
| 20260906011844 | 77 | 307 | 0.0 | 0.0 | 0.00 | 0.00 | 0.00 | 23 | 933.5 |
| 20260906011339 | 78 | 2 | 0.0 | 0.0 | 0.00 | 0.00 | 0.00 | 21 | 933.3 |
| 20260906010835 | 78 | 232 | 1.7 | 7.0 | 0.00 | 0.00 | 0.00 | 20 | 933.5 |
| 20260906010331 | 78 | 195 | 3.5 | 7.8 | 0.00 | 0.00 | 0.00 | 21 | 933.5 |
| 20260906005826 | 79 | 191 | 4.3 | 9.6 | 0.00 | 0.00 | 0.00 | 21 | 933.4 |
| 20260906005325 | 80 | 307 | 1.7 | 1.7 | 0.00 | 0.00 | 0.00 | 21 | 933.6 |
| 20260906004824 | 80 | 270 | 0.0 | 1.7 | 0.00 | 0.00 | 0.00 | 20 | 933.4 |
| 20260906004324 | 80 | 273 | 0.0 | 5.2 | 0.00 | 0.00 | 0.00 | 19 | 933.5 |
| 20260906003819 | 80 | 191 | 0.0 | 1.7 | 0.00 | 0.00 | 0.00 | 20 | 933.9 |
| 20260906003314 | 80 | 244 | 6.1 | 7.8 | 0.00 | 0.00 | 0.00 | 20 | 933.6 |
| 20260906002810 | 81 | 326 | 2.6 | 7.8 | 0.00 | 0.00 | 0.00 | 20 | 933.7 |
| 20260906002309 | 80 | 342 | 3.5 | 6.1 | 0.00 | 0.00 | 0.00 | 19 | 933.5 |
| 20260906001805 | 81 | 278 | 2.6 | 11.3 | 0.00 | 0.00 | 0.00 | 19 | 933.5 |
| 20260906001300 | 81 | 244 | 1.7 | 6.1 | 0.00 | 0.00 | 0.00 | 18 | 933.4 |
| 20260906000756 | 82 | 323 | 0.0 | 7.0 | 0.00 | 0.00 | 0.00 | 19 | 933.6 |
| 20260906000256 | 82 | 312 | 0.9 | 2.6 | 0.00 | 0.00 | 0.00 | 19 | 933.5 |
| 20260905235750 | 81 | 232 | 5.2 | 7.8 | 0.00 | 0.00 | 0.00 | 19 | 933.6 |
| 20260905235250 | 81 | 263 | 7.8 | 8.7 | 0.00 | 0.00 | 0.00 | 18 | 933.5 |
| 20260905234746 | 81 | 237 | 9.6 | 13.9 | 0.00 | 0.00 | 0.00 | 18 | 933.4 |
| 20260905234241 | 82 | 234 | 2.6 | 7.0 | 0.00 | 0.00 | 0.00 | 20 | 933.3 |
| 20260905233736 | 82 | 229 | 0.9 | 7.8 | 0.00 | 0.00 | 0.00 | 20 | 933.2 |
| 20260905233235 | 82 | 219 | 1.7 | 4.3 | 0.00 | 0.00 | 0.00 | 19 | 933.2 |
| 20260905232730 | 81 | 242 | 4.3 | 11.3 | 0.00 | 0.00 | 0.00 | 19 | 933.5 |
| 20260905232226 | 82 | 247 | 6.1 | 7.8 | 0.00 | 0.00 | 0.00 | 19 | 933.3 |
| 20260905231721 | 81 | 250 | 6.1 | 12.2 | 0.00 | 0.00 | 0.00 | 19 | 933.2 |
| 20260905231217 | 82 | 231 | 0.0 | 8.7 | 0.00 | 0.00 | 0.00 | 19 | 933.2 |
| 20260905230713 | 82 | 339 | 4.3 | 13.9 | 0.00 | 0.00 | 0.00 | 19 | 933.3 |
| 20260905230211 | 82 | 278 | 3.5 | 12.2 | 0.00 | 0.00 | 0.00 | 18 | 933.2 |
| 20260905225710 | 82 | 346 | 0.0 | 11.3 | 0.00 | 0.00 | 0.00 | 19 | 933.3 |
| 20260905225206 | 82 | 211 | 7.0 | 14.8 | 0.00 | 0.00 | 0.00 | 19 | 933.4 |
| 20260905224705 | 82 | 193 | 3.5 | 7.8 | 0.00 | 0.00 | 0.00 | 19 | 933.2 |
| 20260905224200 | 82 | 250 | 6.1 | 9.6 | 0.00 | 0.00 | 0.00 | 19 | 933.4 |
| 20260905223656 | 82 | 244 | 4.3 | 13.9 | 0.00 | 0.00 | 0.00 | 18 | 933.4 |
| 20260905223153 | 82 | 236 | 7.8 | 15.6 | 0.00 | 0.00 | 0.00 | 20 | 933.5 |
| 20260905222648 | 82 | 338 | 2.6 | 6.1 | 0.00 | 0.00 | 0.00 | 19 | 933.6 |
| 20260905222142 | 81 | 224 | 8.7 | 13.0 | 0.00 | 0.00 | 0.00 | 20 | 933.6 |
| 20260905221638 | 82 | 173 | 2.6 | 11.3 | 0.00 | 0.00 | 0.00 | 20 | 933.5 |
| 20260905221135 | 81 | 302 | 0.0 | 19.1 | 0.00 | 0.00 | 0.00 | 19 | 933.7 |
| 20260905220630 | 81 | 208 | 7.0 | 14.8 | 0.00 | 0.00 | 0.00 | 18 | 933.5 |
| 20260905220126 | 82 | 235 | 5.2 | 13.0 | 0.00 | 0.00 | 0.00 | 20 | 933.6 |
| 20260905215625 | 82 | 247 | 7.0 | 12.2 | 0.00 | 0.00 | 0.00 | 20 | 933.7 |
| 20260905215121 | 82 | 220 | 3.5 | 11.3 | 0.00 | 0.00 | 0.00 | 19 | 933.7 |
| 20260905214618 | 82 | 221 | 2.6 | 12.2 | 0.00 | 0.00 | 0.00 | 20 | 933.9 |
| 20260905214117 | 81 | 181 | 5.2 | 9.6 | 0.00 | 0.00 | 0.00 | 20 | 933.7 |
| 20260905213613 | 82 | 252 | 7.8 | 11.3 | 0.00 | 0.00 | 0.00 | 20 | 933.7 |
| 20260905213109 | 82 | 220 | 5.2 | 15.6 | 0.00 | 0.00 | 0.00 | 20 | 933.9 |
| 20260905212608 | 82 | 246 | 8.7 | 14.8 | 0.00 | 0.00 | 0.00 | 19 | 933.7 |
| 20260905212108 | 81 | 219 | 2.6 | 13.0 | 0.00 | 0.00 | 0.00 | 19 | 933.9 |
| 20260905211603 | 81 | 231 | 4.3 | 17.4 | 0.00 | 0.00 | 0.00 | 20 | 933.9 |
| 20260905211059 | 81 | 239 | 6.1 | 13.0 | 0.00 | 0.00 | 0.00 | 20 | 933.9 |
| 20260905210554 | 81 | 233 | 7.8 | 9.6 | 0.00 | 0.00 | 0.00 | 22 | 934.2 |
| 20260905210049 | 81 | 204 | 11.3 | 14.8 | 0.00 | 0.00 | 0.00 | 21 | 933.9 |
| 20260905205549 | 81 | 239 | 5.2 | 17.4 | 0.00 | 0.00 | 0.00 | 22 | 934.1 |
| 20260905205048 | 81 | 309 | 3.5 | 9.6 | 0.00 | 0.00 | 0.00 | 22 | 933.9 |
| 20260905204543 | 80 | 316 | 2.6 | 7.8 | 0.00 | 0.00 | 0.00 | 22 | 934.0 |
| 20260905204038 | 80 | 269 | 7.0 | 8.7 | 0.00 | 0.00 | 0.00 | 24 | 934.1 |
| 20260905203538 | 79 | 246 | 0.9 | 7.0 | 0.00 | 0.00 | 0.00 | 23 | 934.2 |
| 20260905203033 | 80 | 214 | 0.9 | 5.2 | 0.00 | 0.00 | 0.00 | 24 | 934.2 |
| 20260905202528 | 81 | 219 | 0.0 | 2.6 | 0.00 | 0.00 | 0.00 | 24 | 934.3 |
| 20260905202024 | 80 | 201 | 1.7 | 7.0 | 0.00 | 0.00 | 0.00 | 22 | 934.3 |
| 20260905201520 | 80 | 256 | 2.6 | 8.7 | 0.00 | 0.00 | 0.00 | 23 | 934.5 |
| 20260905201019 | 80 | 187 | 2.6 | 8.7 | 0.00 | 0.00 | 0.00 | 23 | 934.3 |
| 20260905200515 | 79 | 235 | 2.6 | 7.0 | 0.00 | 0.00 | 0.00 | 23 | 934.4 |
| 20260905200014 | 79 | 210 | 7.8 | 9.6 | 0.00 | 0.00 | 0.00 | 23 | 934.5 |
| 20260905195508 | 79 | 240 | 5.2 | 9.6 | 0.00 | 0.00 | 0.00 | 23 | 934.3 |
| 20260905195004 | 79 | 180 | 2.6 | 7.8 | 0.00 | 0.00 | 0.00 | 22 | 934.5 |
| 20260905194503 | 79 | 244 | 5.2 | 12.2 | 0.00 | 0.00 | 0.00 | 23 | 934.8 |
| 20260905194003 | 78 | 191 | 0.0 | 8.7 | 0.00 | 0.00 | 0.00 | 23 | 934.7 |
| 20260905193458 | 79 | 207 | 0.9 | 7.0 | 0.00 | 0.00 | 0.00 | 23 | 934.5 |
| 20260905192953 | 79 | 248 | 2.6 | 7.0 | 0.00 | 0.00 | 0.00 | 24 | 934.7 |
| 20260905192449 | 79 | 242 | 4.3 | 6.1 | 0.00 | 0.00 | 0.00 | 23 | 934.8 |
| 20260905191945 | 79 | 215 | 4.3 | 7.0 | 0.00 | 0.00 | 0.00 | 22 | 935.0 |
| 20260905191443 | 78 | 240 | 2.6 | 12.2 | 0.00 | 0.00 | 0.00 | 23 | 934.8 |
| 20260905190943 | 77 | 61 | 0.0 | 7.0 | 0.00 | 0.00 | 0.00 | 24 | 934.9 |
| 20260905190441 | 78 | 262 | 1.7 | 4.3 | 0.00 | 0.00 | 0.00 | 22 | 935.0 |
| 20260905185940 | 77 | 199 | 0.0 | 0.9 | 0.00 | 0.00 | 0.00 | 22 | 935.0 |
| 20260905185435 | 78 | 250 | 7.0 | 11.3 | 0.00 | 0.00 | 0.00 | 22 | 935.1 |
| 20260905184934 | 77 | 230 | 5.2 | 8.7 | 0.00 | 0.00 | 0.00 | 24 | 935.2 |
| 20260905184428 | 77 | 173 | 5.2 | 12.2 | 0.00 | 0.00 | 0.00 | 24 | 935.1 |
| 20260905183927 | 77 | 262 | 0.0 | 8.7 | 0.00 | 0.00 | 0.00 | 25 | 935.3 |
| 20260905183422 | 77 | 112 | 0.0 | 2.6 | 0.00 | 0.00 | 0.00 | 24 | 935.2 |
| 20260905182917 | 76 | 236 | 0.0 | 2.6 | 0.00 | 0.00 | 0.00 | 24 | 935.5 |
| 20260905182416 | 76 | 326 | 0.0 | 9.6 | 0.00 | 0.00 | 0.00 | 25 | 935.5 |
| 20260905181913 | 76 | 233 | 0.0 | 8.7 | 0.00 | 0.00 | 0.00 | 24 | 935.5 |
| 20260905181413 | 76 | 271 | 2.6 | 11.3 | 0.00 | 0.00 | 0.00 | 24 | 935.5 |
| 20260905180912 | 77 | 214 | 4.3 | 6.1 | 0.00 | 0.00 | 0.00 | 25 | 935.8 |
| 20260905180407 | 77 | 201 | 0.9 | 6.1 | 0.00 | 0.00 | 0.00 | 25 | 935.7 |
| 20260905175907 | 75 | 210 | 0.0 | 0.9 | 0.00 | 0.00 | 0.00 | 25 | 935.7 |
| 20260905175406 | 75 | 222 | 6.1 | 13.0 | 0.00 | 0.00 | 0.00 | 25 | 935.7 |
| 20260905174907 | 77 | 199 | 7.0 | 11.3 | 0.00 | 0.00 | 0.00 | 23 | 935.7 |
| 20260905174402 | 76 | 107 | 6.1 | 11.3 | 0.00 | 0.00 | 0.00 | 25 | 935.8 |
| 20260905173858 | 76 | 319 | 0.0 | 11.3 | 0.00 | 0.00 | 0.00 | 25 | 935.8 |
| 20260905173354 | 75 | 85 | 0.0 | 2.6 | 0.00 | 0.00 | 0.00 | 27 | 936.0 |
| 20260905172849 | 75 | 298 | 4.3 | 11.3 | 0.00 | 0.00 | 0.00 | 26 | 935.8 |
| 20260905172347 | 74 | 187 | 3.5 | 13.0 | 0.00 | 0.00 | 0.00 | 27 | 935.7 |
| 20260905171843 | 75 | 198 | 9.6 | 12.2 | 0.00 | 0.00 | 0.00 | 25 | 935.6 |
| 20260905171340 | 75 | 191 | 5.2 | 9.6 | 0.00 | 0.00 | 0.00 | 26 | 935.6 |
| 20260905170836 | 74 | 210 | 7.0 | 11.3 | 0.00 | 0.00 | 0.00 | 26 | 935.9 |
| 20260905170332 | 74 | 174 | 8.7 | 11.3 | 0.00 | 0.00 | 0.00 | 25 | 935.6 |
| 20260905165831 | 73 | 256 | 0.9 | 8.7 | 0.00 | 0.00 | 0.00 | 26 | 935.6 |
| 20260905165326 | 74 | 207 | 7.8 | 11.3 | 0.00 | 0.00 | 0.00 | 28 | 935.8 |
| 20260905164826 | 73 | 235 | 0.9 | 11.3 | 0.00 | 0.00 | 0.00 | 29 | 935.6 |
| 20260905164321 | 73 | 190 | 1.7 | 9.6 | 0.00 | 0.00 | 0.00 | 30 | 935.8 |
| 20260905163816 | 73 | 173 | 7.0 | 13.0 | 0.00 | 0.00 | 0.00 | 29 | 935.5 |
| 20260905163313 | 72 | 234 | 7.8 | 11.3 | 0.00 | 0.00 | 0.00 | 30 | 935.7 |
| 20260905162808 | 72 | 182 | 4.3 | 7.8 | 0.00 | 0.00 | 0.00 | 31 | 935.5 |
| 20260905162305 | 72 | 184 | 7.0 | 12.2 | 0.00 | 0.00 | 0.00 | 31 | 935.3 |
| 20260905161803 | 71 | 94 | 0.0 | 9.6 | 0.00 | 0.00 | 0.00 | 34 | 935.5 |
| 20260905161302 | 71 | 267 | 7.0 | 9.6 | 0.00 | 0.00 | 0.00 | 32 | 935.6 |
| 20260905160801 | 71 | 164 | 0.0 | 1.7 | 0.00 | 0.00 | 0.00 | 32 | 935.3 |
| 20260905160254 | 71 | 263 | 0.0 | 7.0 | 0.00 | 0.00 | 0.00 | 32 | 935.7 |
| 20260905155749 | 71 | 217 | 0.9 | 12.2 | 0.00 | 0.00 | 0.00 | 32 | 935.2 |
| 20260905155248 | 70 | 239 | 3.5 | 9.6 | 0.00 | 0.00 | 0.00 | 32 | 935.5 |
| 20260905154742 | 70 | 183 | 5.2 | 11.3 | 0.00 | 0.00 | 0.00 | 33 | 935.5 |
| 20260905154239 | 70 | 341 | 0.0 | 0.0 | 0.00 | 0.00 | 0.00 | 35 | 935.5 |
| 20260905153734 | 69 | 194 | 0.9 | 1.7 | 0.00 | 0.00 | 0.00 | 37 | 935.6 |
| 20260905153230 | 69 | 253 | 0.0 | 0.9 | 0.00 | 0.00 | 0.00 | 39 | 935.6 |
| 20260905152724 | 68 | 199 | 7.0 | 7.8 | 0.00 | 0.00 | 0.00 | 36 | 935.7 |
| 20260905152219 | 67 | 273 | 0.0 | 0.0 | 0.00 | 0.00 | 0.00 | 42 | 935.8 |
| 20260905151718 | 66 | 3 | 0.0 | 0.9 | 0.00 | 0.00 | 0.00 | 46 | 935.8 |
| 20260905151215 | 66 | 25 | 0.0 | 0.0 | 0.00 | 0.00 | 0.00 | 46 | 935.6 |
| 20260905150709 | 64 | 22 | 0.0 | 0.0 | 0.00 | 0.00 | 0.00 | 49 | 935.8 |
| 20260905150208 | 65 | 66 | 0.0 | 0.0 | 0.00 | 0.00 | 0.00 | 49 | 935.6 |
| 20260905145706 | 65 | 66 | 0.0 | 0.0 | 0.00 | 0.00 | 0.00 | 51 | 935.5 |
| 20260905145201 | 65 | 69 | 0.0 | 0.0 | 0.00 | 0.00 | 0.00 | 51 | 935.2 |
| 20260905144700 | 64 | 65 | 0.0 | 0.0 | 0.00 | 0.00 | 0.00 | 51 | 935.3 |
| 20260905144200 | 62 | 67 | 0.0 | 0.0 | 0.00 | 0.00 | 0.00 | 53 | 935.2 |
| 20260905143700 | 62 | 73 | 0.0 | 0.0 | 0.00 | 0.00 | 0.00 | 54 | 935.3 |
| 20260905143159 | 61 | 131 | 0.0 | 0.0 | 0.00 | 0.00 | 0.00 | 54 | 935.2 |
| 20260905142658 | 60 | 122 | 0.0 | 0.0 | 0.00 | 0.00 | 0.00 | 55 | 935.0 |
| 20260905142153 | 60 | 95 | 0.0 | 0.0 | 0.00 | 0.00 | 0.00 | 56 | 935.0 |
| 20260905141648 | 59 | 103 | 0.0 | 0.0 | 0.00 | 0.00 | 0.00 | 56 | 935.0 |
| 20260905141144 | 58 | 77 | 0.0 | 0.0 | 0.00 | 0.00 | 0.00 | 58 | 935.1 |
| 20260905140639 | 58 | 101 | 0.0 | 0.0 | 0.00 | 0.00 | 0.00 | 58 | 934.8 |
| 20260905140138 | 57 | 108 | 0.0 | 0.0 | 0.00 | 0.00 | 0.00 | 58 | 934.9 |
| 20260905135634 | 57 | 102 | 0.0 | 0.0 | 0.00 | 0.00 | 0.00 | 58 | 935.0 |
| 20260905135129 | 56 | 103 | 0.0 | 0.0 | 0.00 | 0.00 | 0.00 | 60 | 934.8 |
| 20260905134624 | 56 | 69 | 0.0 | 1.7 | 0.00 | 0.00 | 0.00 | 59 | 934.8 |
| 20260905134122 | 55 | 55 | 0.0 | 0.0 | 0.00 | 0.00 | 0.00 | 60 | 934.7 |
| 20260905133619 | 55 | 63 | 0.0 | 0.0 | 0.00 | 0.00 | 0.00 | 61 | 934.5 |
| 20260905133118 | 52 | 103 | 0.0 | 0.0 | 0.00 | 0.00 | 0.00 | 65 | 934.4 |
| 20260905132618 | 50 | 75 | 0.0 | 0.0 | 0.00 | 0.00 | 0.00 | 68 | 934.4 |
| 20260905132113 | 50 | 87 | 0.0 | 0.0 | 0.00 | 0.00 | 0.00 | 69 | 934.3 |
| 20260905131608 | 50 | 71 | 0.0 | 0.0 | 0.00 | 0.00 | 0.00 | 68 | 934.3 |
| 20260905131103 | 50 | 81 | 0.0 | 0.0 | 0.00 | 0.00 | 0.00 | 67 | 934.2 |
| 20260905130603 | 50 | 78 | 0.0 | 0.0 | 0.00 | 0.00 | 0.00 | 69 | 934.1 |
| 20260905130057 | 50 | 90 | 0.0 | 0.0 | 0.00 | 0.00 | 0.00 | 69 | 934.1 |
| 20260905125557 | 50 | 87 | 0.0 | 0.0 | 0.00 | 0.00 | 0.00 | 69 | 934.2 |
| 20260905125053 | 49 | 59 | 0.0 | 0.0 | 0.00 | 0.00 | 0.00 | 74 | 934.1 |
| 20260905124549 | 49 | 74 | 0.0 | 0.0 | 0.00 | 0.00 | 0.00 | 72 | 934.2 |
| 20260905124045 | 49 | 54 | 0.0 | 0.0 | 0.00 | 0.00 | 0.00 | 73 | 934.2 |
| 20260905123540 | 49 | 46 | 0.0 | 0.0 | 0.00 | 0.00 | 0.00 | 75 | 934.0 |
| 20260905123037 | 49 | 45 | 0.0 | 0.0 | 0.00 | 0.00 | 0.00 | 75 | 933.7 |
| 20260905122536 | 49 | 43 | 0.0 | 0.0 | 0.00 | 0.00 | 0.00 | 74 | 934.0 |
| 20260905122032 | 49 | 43 | 0.0 | 0.0 | 0.00 | 0.00 | 0.00 | 74 | 933.9 |
| 20260905121532 | 49 | 66 | 0.0 | 0.0 | 0.00 | 0.00 | 0.00 | 74 | 934.0 |
| 20260905121027 | 49 | 87 | 0.0 | 0.0 | 0.00 | 0.00 | 0.00 | 73 | 934.0 |
| 20260905120526 | 50 | 69 | 0.0 | 0.0 | 0.00 | 0.00 | 0.00 | 72 | 934.0 |
| 20260905120022 | 49 | 82 | 0.0 | 0.0 | 0.00 | 0.00 | 0.00 | 72 | 934.1 |
| 20260905115520 | 48 | 71 | 0.0 | 0.0 | 0.00 | 0.00 | 0.00 | 73 | 934.1 |
| 20260905115015 | 49 | 101 | 0.0 | 0.0 | 0.00 | 0.00 | 0.00 | 73 | 934.3 |
| 20260905114514 | 48 | 64 | 0.0 | 0.0 | 0.00 | 0.00 | 0.00 | 76 | 934.0 |
| 20260905114014 | 49 | 43 | 0.0 | 0.0 | 0.00 | 0.00 | 0.00 | 76 | 934.1 |
| 20260905113509 | 50 | 77 | 0.0 | 0.0 | 0.00 | 0.00 | 0.00 | 75 | 934.0 |
| 20260905113004 | 50 | 64 | 0.0 | 0.0 | 0.00 | 0.00 | 0.00 | 75 | 934.1 |
| 20260905112459 | 50 | 88 | 0.0 | 0.0 | 0.00 | 0.00 | 0.00 | 76 | 933.9 |
| 20260905111954 | 50 | 71 | 0.0 | 0.0 | 0.00 | 0.00 | 0.00 | 76 | 934.1 |
| 20260905111449 | 50 | 54 | 0.0 | 0.0 | 0.00 | 0.00 | 0.00 | 76 | 934.1 |
| 20260905110949 | 50 | 64 | 0.0 | 0.0 | 0.00 | 0.00 | 0.00 | 75 | 933.7 |
| 20260905110448 | 50 | 53 | 0.0 | 0.0 | 0.00 | 0.00 | 0.00 | 75 | 933.9 |
| 20260905105948 | 50 | 74 | 0.0 | 0.0 | 0.00 | 0.00 | 0.00 | 74 | 933.9 |
| 20260905105443 | 50 | 96 | 0.0 | 0.0 | 0.00 | 0.00 | 0.00 | 74 | 933.7 |
| 20260905104942 | 50 | 100 | 0.0 | 0.0 | 0.00 | 0.00 | 0.00 | 75 | 933.7 |
| 20260905104439 | 50 | 79 | 0.0 | 0.0 | 0.00 | 0.00 | 0.00 | 76 | 933.7 |
| 20260905103939 | 50 | 83 | 0.0 | 0.0 | 0.00 | 0.00 | 0.00 | 75 | 933.9 |
| 20260905103434 | 50 | 71 | 0.0 | 0.0 | 0.00 | 0.00 | 0.00 | 74 | 933.6 |
| 20260905102930 | 50 | 81 | 0.0 | 0.0 | 0.00 | 0.00 | 0.00 | 74 | 933.6 |
| 20260905102426 | 50 | 80 | 0.0 | 0.0 | 0.00 | 0.00 | 0.00 | 74 | 933.7 |
| 20260905101921 | 50 | 71 | 0.0 | 0.0 | 0.00 | 0.00 | 0.00 | 74 | 933.5 |
| 20260905101420 | 50 | 69 | 0.0 | 0.0 | 0.00 | 0.00 | 0.00 | 73 | 933.5 |
| 20260905100914 | 50 | 45 | 0.0 | 0.0 | 0.00 | 0.00 | 0.00 | 74 | 933.4 |
| 20260905100410 | 51 | 44 | 0.0 | 0.0 | 0.00 | 0.00 | 0.00 | 71 | 933.6 |
| 20260905095910 | 51 | 75 | 0.0 | 0.0 | 0.00 | 0.00 | 0.00 | 72 | 933.5 |
| 20260905095404 | 51 | 94 | 0.0 | 0.0 | 0.00 | 0.00 | 0.00 | 72 | 933.5 |
| 20260905094904 | 51 | 75 | 0.0 | 0.0 | 0.00 | 0.00 | 0.00 | 72 | 933.4 |
| 20260905094400 | 51 | 69 | 0.0 | 0.0 | 0.00 | 0.00 | 0.00 | 72 | 933.3 |
| 20260905093859 | 51 | 73 | 0.0 | 0.0 | 0.00 | 0.00 | 0.00 | 72 | 933.4 |
| 20260905093354 | 51 | 73 | 0.0 | 0.0 | 0.00 | 0.00 | 0.00 | 72 | 933.4 |
| 20260905092850 | 51 | 58 | 0.0 | 0.0 | 0.00 | 0.00 | 0.00 | 72 | 933.3 |
| 20260905092350 | 51 | 68 | 0.0 | 0.0 | 0.00 | 0.00 | 0.00 | 71 | 933.2 |
| 20260905091845 | 52 | 76 | 0.0 | 0.0 | 0.00 | 0.00 | 0.00 | 70 | 933.3 |
| 20260905091345 | 52 | 77 | 0.0 | 0.0 | 0.00 | 0.00 | 0.00 | 70 | 932.9 |
| 20260905090844 | 51 | 79 | 0.0 | 0.0 | 0.00 | 0.00 | 0.00 | 71 | 933.1 |
| 20260905090340 | 51 | 81 | 0.0 | 0.0 | 0.00 | 0.00 | 0.00 | 71 | 933.1 |
| 20260905085839 | 52 | 70 | 0.0 | 0.0 | 0.00 | 0.00 | 0.00 | 71 | 932.9 |
| 20260905085339 | 51 | 68 | 0.0 | 0.0 | 0.00 | 0.00 | 0.00 | 71 | 933.2 |
| 20260905084835 | 51 | 59 | 0.0 | 0.0 | 0.00 | 0.00 | 0.00 | 72 | 933.2 |
| 20260905084334 | 52 | 47 | 0.0 | 0.0 | 0.00 | 0.00 | 0.00 | 70 | 932.9 |
| 20260905083829 | 53 | 66 | 0.0 | 0.0 | 0.00 | 0.00 | 0.00 | 68 | 932.9 |
| 20260905083325 | 53 | 65 | 0.0 | 0.0 | 0.00 | 0.00 | 0.00 | 68 | 933.1 |
| 20260905082820 | 53 | 65 | 0.0 | 0.0 | 0.00 | 0.00 | 0.00 | 68 | 932.9 |
| 20260905082316 | 52 | 75 | 0.0 | 0.0 | 0.00 | 0.00 | 0.00 | 69 | 932.9 |
| 20260905081811 | 52 | 83 | 0.0 | 0.0 | 0.00 | 0.00 | 0.00 | 69 | 932.9 |
| 20260905081306 | 52 | 75 | 0.0 | 0.0 | 0.00 | 0.00 | 0.00 | 69 | 932.9 |
| 20260905080805 | 52 | 90 | 0.0 | 0.0 | 0.00 | 0.00 | 0.00 | 69 | 932.8 |
| 20260905080306 | 53 | 53 | 0.0 | 0.0 | 0.00 | 0.00 | 0.00 | 68 | 932.8 |
| 20260905075804 | 53 | 50 | 0.0 | 0.0 | 0.00 | 0.00 | 0.00 | 67 | 933.1 |
| 20260905075306 | 54 | 71 | 0.0 | 0.0 | 0.00 | 0.00 | 0.00 | 66 | 932.6 |
| 20260905074803 | 54 | 74 | 0.0 | 0.0 | 0.00 | 0.00 | 0.00 | 66 | 932.7 |
| 20260905074259 | 54 | 90 | 0.0 | 0.0 | 0.00 | 0.00 | 0.00 | 66 | 932.8 |
| 20260905073754 | 54 | 95 | 0.0 | 0.0 | 0.00 | 0.00 | 0.00 | 65 | 932.7 |
| 20260905073250 | 54 | 95 | 0.0 | 0.0 | 0.00 | 0.00 | 0.00 | 65 | 932.7 |
| 20260905072749 | 55 | 77 | 0.0 | 0.0 | 0.00 | 0.00 | 0.00 | 65 | 932.7 |
| 20260905072245 | 55 | 78 | 0.0 | 0.0 | 0.00 | 0.00 | 0.00 | 64 | 932.4 |
| 20260905071741 | 55 | 78 | 0.0 | 0.0 | 0.00 | 0.00 | 0.00 | 64 | 932.8 |
| 20260905071237 | 54 | 70 | 0.0 | 0.0 | 0.00 | 0.00 | 0.00 | 65 | 932.6 |
| 20260905070732 | 54 | 45 | 0.0 | 0.0 | 0.00 | 0.00 | 0.00 | 66 | 932.5 |
| 20260905070228 | 54 | 45 | 0.0 | 0.0 | 0.00 | 0.00 | 0.00 | 65 | 932.4 |
| 20260905065726 | 55 | 58 | 0.0 | 0.0 | 0.00 | 0.00 | 0.00 | 65 | 932.1 |
| 20260905065221 | 55 | 64 | 0.0 | 0.0 | 0.00 | 0.00 | 0.00 | 63 | 932.1 |
| 20260905064716 | 55 | 87 | 0.0 | 0.0 | 0.00 | 0.00 | 0.00 | 64 | 932.4 |
| 20260905064212 | 56 | 78 | 0.0 | 0.0 | 0.00 | 0.00 | 0.00 | 60 | 932.1 |
| 20260905063710 | 55 | 80 | 0.0 | 0.0 | 0.00 | 0.00 | 0.00 | 61 | 932.1 |
| 20260905063207 | 56 | 71 | 0.0 | 0.0 | 0.00 | 0.00 | 0.00 | 61 | 932.3 |
| 20260905062702 | 56 | 71 | 0.0 | 0.0 | 0.00 | 0.00 | 0.00 | 60 | 932.0 |
| 20260905062201 | 56 | 102 | 0.0 | 0.0 | 0.00 | 0.00 | 0.00 | 60 | 932.4 |
| 20260905061656 | 56 | 78 | 0.0 | 0.0 | 0.00 | 0.00 | 0.00 | 59 | 932.1 |
| 20260905061155 | 57 | 64 | 0.0 | 0.0 | 0.00 | 0.00 | 0.00 | 58 | 932.0 |
| 20260905060651 | 57 | 68 | 0.0 | 0.0 | 0.00 | 0.00 | 0.00 | 57 | 932.0 |
| 20260905060148 | 58 | 82 | 0.0 | 0.0 | 0.00 | 0.00 | 0.00 | 56 | 931.8 |
| 20260905055646 | 58 | 69 | 0.0 | 0.0 | 0.00 | 0.00 | 0.00 | 55 | 931.8 |
| 20260905055141 | 59 | 115 | 0.0 | 0.0 | 0.00 | 0.00 | 0.00 | 54 | 931.8 |
| 20260905054637 | 60 | 111 | 0.0 | 0.0 | 0.00 | 0.00 | 0.00 | 51 | 931.9 |
| 20260905054132 | 60 | 74 | 0.0 | 0.0 | 0.00 | 0.00 | 0.00 | 52 | 931.8 |
| 20260905053632 | 60 | 111 | 0.0 | 0.0 | 0.00 | 0.00 | 0.00 | 51 | 931.8 |
| 20260905053127 | 60 | 141 | 0.0 | 0.9 | 0.00 | 0.00 | 0.00 | 50 | 931.7 |
| 20260905052626 | 60 | 129 | 0.0 | 0.0 | 0.00 | 0.00 | 0.00 | 51 | 931.5 |
| 20260905052121 | 60 | 86 | 0.0 | 1.7 | 0.00 | 0.00 | 0.00 | 51 | 931.7 |
| 20260905051617 | 60 | 27 | 0.0 | 0.0 | 0.00 | 0.00 | 0.00 | 50 | 931.5 |
| 20260905051114 | 59 | 354 | 0.0 | 0.0 | 0.00 | 0.00 | 0.00 | 51 | 931.6 |
| 20260905050609 | 59 | 40 | 0.0 | 0.0 | 0.00 | 0.00 | 0.00 | 52 | 931.3 |
| 20260905050106 | 60 | 67 | 0.0 | 0.0 | 0.00 | 0.00 | 0.00 | 51 | 931.3 |
| 20260905045606 | 60 | 94 | 0.0 | 5.2 | 0.00 | 0.00 | 0.00 | 50 | 931.3 |
| 20260905045102 | 60 | 148 | 0.0 | 0.0 | 0.00 | 0.00 | 0.00 | 49 | 931.6 |
| 20260905044601 | 61 | 56 | 0.0 | 0.0 | 0.00 | 0.00 | 0.00 | 48 | 931.7 |
| 20260905044056 | 61 | 89 | 0.0 | 0.0 | 0.00 | 0.00 | 0.00 | 48 | 931.9 |
| 20260905043555 | 61 | 119 | 0.0 | 0.0 | 0.00 | 0.00 | 0.00 | 47 | 931.8 |
| 20260905043051 | 61 | 128 | 0.0 | 0.0 | 0.00 | 0.00 | 0.00 | 47 | 932.0 |
| 20260905042549 | 60 | 89 | 0.0 | 0.0 | 0.00 | 0.00 | 0.00 | 48 | 932.0 |
| 20260905042044 | 60 | 47 | 0.0 | 0.0 | 0.00 | 0.00 | 0.00 | 49 | 932.0 |
| 20260905041540 | 61 | 51 | 0.0 | 0.0 | 0.00 | 0.00 | 0.00 | 48 | 931.9 |
| 20260905041035 | 61 | 53 | 0.0 | 0.0 | 0.00 | 0.00 | 0.00 | 49 | 931.6 |
| 20260905040535 | 61 | 55 | 0.0 | 0.0 | 0.00 | 0.00 | 0.00 | 48 | 931.8 |
| 20260905040033 | 62 | 80 | 0.0 | 0.0 | 0.00 | 0.00 | 0.00 | 46 | 931.7 |
| 20260905035529 | 62 | 84 | 0.0 | 0.0 | 0.00 | 0.00 | 0.00 | 45 | 931.7 |
| 20260905035026 | 63 | 80 | 0.0 | 0.0 | 0.00 | 0.00 | 0.00 | 45 | 931.7 |
| 20260905034522 | 64 | 87 | 0.0 | 0.0 | 0.00 | 0.00 | 0.00 | 43 | 931.7 |
| 20260905034021 | 63 | 62 | 0.0 | 0.0 | 0.00 | 0.00 | 0.00 | 44 | 931.6 |
| 20260905033521 | 63 | 67 | 0.0 | 0.0 | 0.00 | 0.00 | 0.00 | 44 | 931.6 |
| 20260905033017 | 63 | 87 | 0.0 | 0.9 | 0.00 | 0.00 | 0.00 | 45 | 931.8 |
| 20260905032511 | 64 | 79 | 0.0 | 0.0 | 0.00 | 0.00 | 0.00 | 44 | 931.7 |
| 20260905032007 | 65 | 71 | 0.0 | 0.0 | 0.00 | 0.00 | 0.00 | 41 | 931.3 |